sat.trackr.live / text

‹ back to catalog

STARLINK-3838

NORAD 52352 · 2022-045X

PAYLOAD ACTIVE UNKNOWN

§ Identity

Operator
Country
US
Launch date
2022-04-29
Launch site
AFETR
Launch vehicle
Mass (kg)
RCS (m²)

Purposes: comms

External: N2YO · Heavens-Above · Gunter

§ Orbital elements

Epoch: 2026-05-24T22:15:41.914080Z

Period
95.44 min
Inclination
53.2147°
Eccentricity
0.0001209
Mean motion
15.08840799 rev/d
Perigee alt
538.9 km
Apogee alt
540.6 km
Semi-major
6,917.9 km
B*
-3.2089e-5
RAAN
216.8770°
Arg perigee
87.3771°
Mean anomaly
272.7360°
Rev number
22,729

§ Raw data

STARLINK-38381 52352U 22045X   26144.92756845 -.00000799  00000+0 -32089-4 0  99952 52352  53.2147 216.8770 0001209  87.3771 272.7360 15.08840799227297

JSON: /api/v1/satellites/52352 · /tle

For live sub-satellite position, see the globe view (requires WebGL).

§ Visibility from observer

Set your observer location to see the next 7 days of passes ≥ 10°. The values pass through the URL so the page stays shareable.

No JS? Fill the form by hand. The geolocation button needs JavaScript.